Volver al catálogo

STARLINK-3624

ActivoComunicacionesVLEO
NORAD 51773·PAYLOAD·🇺🇸 United States

Lanzado Feb 25, 2022 desde Vandenberg Space Force Base

Loading…

Próximos Pases (próximas 24 horas)

TLE

ActualizadoSource: CelesTrak SupGP

Época: Sep 14, 2026, 21:22 UTC

1 51773C 22017F   26257.89076389  .00016072  00000+0  95296-3 0  2573
2 51773  53.1842 208.7453 0002327  80.5335  84.3760 15.10861625    19

Sigue STARLINK-3624 en tiempo real con AllMySat

Download on the App Store